| time (UTC) | temp C | wind direction | speed KPH | gust KPH | rain 1hr cm | rain 24hr cm | rain mn cm | humidity % | barometer mb |
| 20260505124534 | 12 | 198 | 37.0 | 49.9 | 0.00 | 0.00 | 0.00 | 88 | 1013.7 |
| 20260505123034 | 12 | 225 | 24.1 | 41.8 | 0.00 | 0.00 | 0.00 | 88 | 1013.7 |
| 20260505121529 | 12 | 239 | 27.4 | 41.8 | 0.00 | 0.00 | 0.00 | 88 | 1013.9 |
| 20260505120027 | 12 | 212 | 22.5 | 38.6 | 0.00 | 0.00 | 0.00 | 89 | 1013.8 |
| 20260505114524 | 11 | 206 | 27.4 | 38.6 | 0.00 | 0.00 | 0.00 | 89 | 1014.0 |
| 20260505113023 | 11 | 248 | 29.0 | 45.1 | 0.00 | 0.00 | 0.00 | 89 | 1013.9 |
| 20260505111521 | 11 | 189 | 24.1 | 40.2 | 0.00 | 0.00 | 0.00 | 90 | 1013.9 |
| 20260505101527 | 10 | 218 | 19.3 | 27.4 | 0.00 | 0.00 | 0.00 | 92 | 1013.8 |
| 20260505100030 | 10 | 187 | 19.3 | 29.0 | 0.00 | 0.00 | 0.00 | 93 | 1013.7 |
| 20260505094509 | 10 | 222 | 24.1 | 37.0 | 0.00 | 0.00 | 0.00 | 93 | 1013.4 |
| 20260505093008 | 9 | 237 | 19.3 | 33.8 | 0.00 | 0.00 | 0.00 | 93 | 1013.4 |
| 20260505091506 | 9 | 226 | 20.9 | 32.2 | 0.00 | 0.00 | 0.00 | 93 | 1013.5 |
| 20260505090005 | 10 | 206 | 17.7 | 30.6 | 0.00 | 0.00 | 0.00 | 93 | 1013.4 |
| 20260505084506 | 10 | 202 | 20.9 | 32.2 | 0.00 | 0.00 | 0.00 | 93 | 1013.4 |
| 20260505083003 | 10 | 225 | 17.7 | 25.7 | 0.00 | 0.00 | 0.00 | 92 | 1013.5 |
| 20260505081628 | 10 | 202 | 16.1 | 27.4 | 0.00 | 0.00 | 0.00 | 92 | 1013.6 |
| 20260505074558 | 10 | 230 | 16.1 | 35.4 | 0.00 | 0.00 | 0.00 | 91 | 1013.5 |
| 20260505073103 | 10 | 235 | 22.5 | 37.0 | 0.00 | 0.00 | 0.00 | 91 | 1013.5 |
| 20260505071557 | 10 | 235 | 20.9 | 35.4 | 0.00 | 0.00 | 0.00 | 91 | 1013.5 |
| 20260505070058 | 10 | 227 | 22.5 | 38.6 | 0.00 | 0.00 | 0.00 | 91 | 1013.4 |
| 20260505064552 | 10 | 289 | 20.9 | 37.0 | 0.00 | 0.00 | 0.00 | 90 | 1013.4 |
| 20260505063051 | 10 | 215 | 19.3 | 35.4 | 0.00 | 0.00 | 0.00 | 90 | 1013.5 |
| 20260505061549 | 10 | 209 | 20.9 | 33.8 | 0.00 | 0.00 | 0.00 | 90 | 1013.5 |
| 20260505060047 | 10 | 229 | 22.5 | 38.6 | 0.00 | 0.00 | 0.00 | 90 | 1013.5 |
| 20260505054548 | 10 | 243 | 19.3 | 38.6 | 0.00 | 0.00 | 0.00 | 89 | 1013.4 |
| 20260505053044 | 10 | 243 | 20.9 | 35.4 | 0.00 | 0.00 | 0.00 | 90 | 1013.4 |
| 20260505051542 | 10 | 213 | 19.3 | 33.8 | 0.00 | 0.00 | 0.00 | 91 | 1013.4 |
| 20260505041529 | 10 | 226 | 20.9 | 33.8 | 0.00 | 0.00 | 0.00 | 89 | 1014.0 |
| 20260505040028 | 10 | 235 | 22.5 | 45.1 | 0.00 | 0.00 | 0.00 | 88 | 1014.0 |
| 20260505034526 | 10 | 258 | 22.5 | 43.5 | 0.00 | 0.00 | 0.00 | 87 | 1014.0 |
| 20260505033024 | 10 | 250 | 25.7 | 40.2 | 0.00 | 0.00 | 0.00 | 87 | 1014.1 |
| 20260505031531 | 10 | 225 | 22.5 | 40.2 | 0.00 | 0.00 | 0.00 | 87 | 1014.0 |
| 20260505030023 | 10 | 244 | 20.9 | 41.8 | 0.00 | 0.00 | 0.00 | 86 | 1014.0 |
| 20260505024522 | 10 | 228 | 24.1 | 41.8 | 0.00 | 0.00 | 0.00 | 85 | 1014.0 |
| 20260505023022 | 10 | 181 | 27.4 | 46.7 | 0.00 | 0.00 | 0.00 | 84 | 1014.0 |
| 20260505021519 | 10 | 256 | 22.5 | 41.8 | 0.00 | 0.00 | 0.00 | 83 | 1013.9 |
| 20260505020019 | 10 | 208 | 27.4 | 45.1 | 0.00 | 0.00 | 0.00 | 83 | 1013.8 |
| 20260505014517 | 10 | 230 | 27.4 | 43.5 | 0.00 | 0.00 | 0.00 | 82 | 1013.7 |
| 20260505013016 | 10 | 218 | 20.9 | 45.1 | 0.00 | 0.00 | 0.00 | 82 | 1013.5 |
| 20260505011525 | 10 | 220 | 22.5 | 41.8 | 0.00 | 0.00 | 0.00 | 82 | 1013.4 |
| 20260505010026 | 10 | 213 | 24.1 | 38.6 | 0.00 | 0.00 | 0.00 | 81 | 1013.1 |
| 20260505004515 | 10 | 243 | 27.4 | 40.2 | 0.00 | 0.00 | 0.00 | 81 | 1012.8 |
| 20260505003014 | 10 | 242 | 29.0 | 48.3 | 0.00 | 0.00 | 0.00 | 81 | 1012.6 |
| 20260505001514 | 10 | 210 | 29.0 | 48.3 | 0.00 | 0.00 | 0.00 | 82 | 1012.4 |
| 20260505000021 | 10 | 226 | 30.6 | 45.1 | 0.00 | 0.00 | 0.00 | 82 | 1012.1 |
| 20260504234512 | 10 | 260 | 27.4 | 49.9 | 0.00 | 0.00 | 0.00 | 81 | 1012.0 |
| 20260504233011 | 10 | 227 | 27.4 | 41.8 | 0.00 | 0.00 | 0.00 | 81 | 1012.0 |
| 20260504231510 | 10 | 225 | 29.0 | 49.9 | 0.00 | 0.00 | 0.00 | 81 | 1011.9 |
| 20260504230012 | 11 | 254 | 30.6 | 43.5 | 0.00 | 0.00 | 0.00 | 81 | 1011.8 |
| 20260504224511 | 11 | 223 | 30.6 | 45.1 | 0.00 | 0.00 | 0.00 | 81 | 1011.9 |
| 20260504223011 | 11 | 229 | 24.1 | 46.7 | 0.00 | 0.00 | 0.00 | 80 | 1011.7 |
| 20260504221520 | 11 | 233 | 32.2 | 53.1 | 0.00 | 0.00 | 0.00 | 78 | 1011.8 |
| 20260504220007 | 12 | 242 | 32.2 | 53.1 | 0.00 | 0.00 | 0.00 | 75 | 1012.0 |
| 20260504214507 | 12 | 220 | 29.0 | 48.3 | 0.00 | 0.00 | 0.00 | 76 | 1012.0 |
| 20260504213005 | 11 | 199 | 35.4 | 54.7 | 0.00 | 0.00 | 0.00 | 76 | 1012.1 |
| 20260504211506 | 11 | 279 | 27.4 | 59.5 | 0.00 | 0.00 | 0.00 | 77 | 1012.2 |
| 20260504210004 | 12 | 210 | 27.4 | 49.9 | 0.00 | 0.00 | 0.00 | 77 | 1012.3 |
| 20260504204502 | 12 | 238 | 29.0 | 49.9 | 0.00 | 0.00 | 0.00 | 76 | 1012.2 |
| 20260504203002 | 12 | 239 | 24.1 | 49.9 | 0.00 | 0.00 | 0.00 | 75 | 1012.3 |
| 20260504201501 | 12 | 202 | 41.8 | 61.2 | 0.00 | 0.00 | 0.00 | 73 | 1012.3 |
| 20260504200104 | 12 | 257 | 33.8 | 59.5 | 0.00 | 0.00 | 0.00 | 74 | 1012.3 |
| 20260504194601 | 12 | 242 | 32.2 | 56.3 | 0.00 | 0.00 | 0.00 | 73 | 1012.3 |
| 20260504193102 | 12 | 235 | 35.4 | 51.5 | 0.00 | 0.00 | 0.00 | 71 | 1012.3 |
| 20260504191602 | 12 | 229 | 37.0 | 66.0 | 0.00 | 0.00 | 0.00 | 73 | 1012.4 |
| 20260504190056 | 12 | 237 | 37.0 | 62.8 | 0.00 | 0.00 | 0.00 | 73 | 1012.4 |
| 20260504184555 | 12 | 234 | 29.0 | 59.5 | 0.00 | 0.00 | 0.00 | 73 | 1012.6 |
| 20260504183054 | 13 | 245 | 30.6 | 54.7 | 0.00 | 0.00 | 0.00 | 72 | 1012.5 |
| 20260504181554 | 13 | 267 | 33.8 | 56.3 | 0.00 | 0.00 | 0.00 | 70 | 1012.3 |
| 20260504180052 | 13 | 241 | 30.6 | 57.9 | 0.00 | 0.00 | 0.00 | 71 | 1012.4 |
| 20260504174552 | 13 | 247 | 29.0 | 57.9 | 0.00 | 0.00 | 0.00 | 73 | 1012.4 |
| 20260504173050 | 13 | 262 | 37.0 | 49.9 | 0.00 | 0.00 | 0.00 | 71 | 1012.5 |
| 20260504171554 | 13 | 247 | 35.4 | 54.7 | 0.00 | 0.00 | 0.00 | 72 | 1012.6 |